Hourly Data Report for September 22, 2017

All times are specified in Local Standard Time (LST). Add 1 hour to adjust for Daylight Saving Time where and when it is observed.

NAPPAN AUTO
NOVA SCOTIA

45°45'34.400" N
64°14'29.200" W
19.80 m
8203702
71311
XNP

Download Data

Hourly Data (September 2017)
Hourly Data Report for September 22, 2017
Temp Definition
°C
Dew Point Temp Definition
°C
Rel Hum Definition
%
Wind Dir Definition
10's deg

Wind Spd Definition
km/h
Visibility Definition
km
Stn Press Definition
kPa
Hmdx Definition


Wind Chill Definition


Weather Definition


TIME
00:00 7.2 6.8 98 32 3   102.10     LegendNANA
01:00 7.5 7.1 97 7 2   102.08     LegendNANA
02:00 5.8 5.5 98 3 5   102.06     LegendNANA
03:00 5.9 5.8 99 18 3   102.07     LegendNANA
04:00 4.4 4.3 99 2 4   102.09     LegendNANA
05:00 5.0 4.9 99   0   102.06     LegendNANA
06:00 3.9 3.8 99 0 1   102.06     LegendNANA
07:00 4.8 4.7 100 20 2   102.11     LegendNANA
08:00 7.9 7.7 98 3 2   102.12     LegendNANA
09:00 10.7 10.4 98 30 2   102.13     LegendNANA
10:00 16.0 11.8 76 36 9   102.11     LegendNANA
11:00 18.2 8.8 54 5 10   102.05     LegendNANA
12:00 19.6 7.6 46 5 8   101.96     LegendNANA
13:00 21.5 9.2 45 4 6   101.90     LegendNANA
14:00 21.5 8.5 43 1 8   101.86     LegendNANA
15:00 21.9 7.8 40 36 11   101.79     LegendNANA
16:00 21.9 11.1 50 2 9   101.76     LegendNANA
17:00 19.6 11.2 58 4 14   101.77     LegendNANA
18:00 17.2 11.0 67 4 6   101.79     LegendNANA
19:00 14.0 9.9 76   0   101.79     LegendNANA
20:00 11.3 7.8 79 7 4   101.74     LegendNANA
21:00 10.8 8.3 84 24 1   101.70     LegendNANA
22:00 10.1 8.3 89 19 9   101.66     LegendNANA
23:00 8.9 7.9 93 18 11   101.65     LegendNANA

Notes on Data Quality.

Legend

  • E = Estimated
  • M = Missing
  • NA = Not Available
  • ‡ = Partner data that is not subject to review by the National Climate Archives
Date modified: